Lincoln, IL

5:24 AM CDT on August 19, 2017 (GMT -0500)
Lincoln

Weather History for KAAA - March, 2014

Change the Weather History Date:

Thursday, March 27, 2014

  Actual Average (KSPI) Record (KSPI)
Temperature  
Mean Temperature 47 °F -  
Max Temperature 57 °F 55 °F 84 °F (1910)
Min Temperature 37 °F 35 °F 14 °F (1955)
Degree Days  
Heating Degree Days 18    
Moisture  
Dew Point 40 °F    
Average Humidity 78    
Maximum Humidity 91    
Minimum Humidity 50    
Precipitation  
Precipitation 0.43 in - - ()
Sea Level Pressure  
Sea Level Pressure 29.73 in    
Wind  
Wind Speed 16 mph (South)    
Max Wind Speed 28 mph    
Max Gust Speed 38 mph    
Visibility 9 miles    
Events Rain , Thunderstorm    
Averages and records for this station are not official NWS values.
T = Trace of Precipitation, MM = Missing Value Source: NWS Daily Summary

Daily Weather History Graph

Daily Weather History Graph

Search for Another Location

Airport or City:

Trip Planner

Search our weather history database for the weather conditions in past years. The results will help you decide how hot, cold, wet, or windy it might be!

Date:

Astronomy

Mar. 27, 2014 Rise Set
Actual Time 6:49 AM CDT 7:16 PM CDT
Civil Twilight 6:22 AM CDT 7:43 PM CDT
Nautical Twilight 5:50 AM CDT 8:15 PM CDT
Astronomical Twilight 5:17 AM CDT 8:48 PM CDT
Moon 4:40 AM CDT (3/27) 4:03 PM CDT (3/27)
Length of Visible Light 13h 21m
Length of Day
12h 27m
Waning Crescent, 13% of the Moon is Illuminated
Mar 27
Waning Crescent
Mar 30
New
Apr 7
First Quarter
Apr 15
Full
Apr 22
Last Quarter

Hourly Weather History & Observations

Time (CDT) Temp. Windchill Dew Point Humidity Pressure Visibility Wind Dir Wind Speed Gust Speed Precip Events Conditions
12:15 AM 40.1 °F 32.7 °F 23.2 °F 51% 30.01 in 10.0 mi South 12.7 mph 19.6 mph N/A   Overcast
12:35 AM 40.5 °F 32.1 °F 23.2 °F 50% 30.01 in 10.0 mi South 16.1 mph - N/A   Overcast
12:55 AM 40.6 °F 32.7 °F 23.9 °F 51% 30.00 in 10.0 mi South 15.0 mph 23.0 mph N/A Rain Light Rain
1:15 AM 38.3 °F 30.9 °F 28.4 °F 68% 30.00 in 10.0 mi South 11.5 mph - N/A Rain Rain
1:35 AM 37.9 °F 30.5 °F 29.1 °F 71% 29.99 in 10.0 mi South 11.5 mph - N/A Rain Light Rain
1:55 AM 37.2 °F 30.6 °F 30.6 °F 77% 29.97 in 10.0 mi SSE 9.2 mph - N/A Rain Light Rain
2:15 AM 37.6 °F 30.0 °F 30.7 °F 76% 29.97 in 10.0 mi South 11.5 mph 17.3 mph N/A Rain Light Rain
2:35 AM 37.9 °F 30.0 °F 30.6 °F 75% 29.96 in 10.0 mi South 12.7 mph 17.3 mph N/A Rain Light Rain
2:55 AM 37.8 °F 30.2 °F 31.1 °F 77% 29.95 in 10.0 mi South 11.5 mph 17.3 mph N/A Rain Rain
3:15 AM 37.6 °F 29.1 °F 32.0 °F 80% 29.94 in 10.0 mi South 13.8 mph - N/A Rain Light Rain
3:35 AM 37.4 °F 28.5 °F 32.4 °F 82% 29.93 in 10.0 mi South 15.0 mph 21.9 mph N/A Rain Rain
3:55 AM 37.4 °F 28.5 °F 33.1 °F 84% 29.91 in 10.0 mi SSE 15.0 mph 21.9 mph N/A Rain Light Rain
4:15 AM 37.0 °F 27.7 °F 33.3 °F 86% 29.90 in 7.0 mi SSE 16.1 mph 23.0 mph N/A Rain Rain
4:35 AM 37.0 °F 28.1 °F 33.8 °F 88% 29.89 in 7.0 mi SSE 15.0 mph 21.9 mph N/A Rain Rain
4:55 AM 37.4 °F 28.5 °F 34.2 °F 88% 29.88 in 7.0 mi SSE 15.0 mph 21.9 mph N/A Rain Rain
5:15 AM 37.4 °F 28.5 °F 34.7 °F 90% 29.87 in 7.0 mi SSE 15.0 mph 24.2 mph N/A Rain Rain
5:35 AM 37.4 °F 27.5 °F 35.1 °F 91% 29.85 in 5.0 mi SSE 18.4 mph 25.3 mph N/A Rain Heavy Rain
5:55 AM 37.4 °F 27.8 °F 35.1 °F 91% 29.83 in 7.0 mi SSE 17.3 mph 23.0 mph N/A Rain Rain
6:15 AM 38.3 °F 28.7 °F 35.2 °F 89% 29.82 in 10.0 mi SSE 18.4 mph 25.3 mph N/A Rain Light Rain
6:35 AM 39.2 °F 29.6 °F 34.7 °F 84% 29.83 in 10.0 mi SSE 19.6 mph 25.3 mph 0.01 in   Drizzle
6:55 AM 38.8 °F 31.2 °F 34.7 °F 85% 29.83 in 7.0 mi SSE 12.7 mph 20.7 mph 0.03 in Rain Rain
7:15 AM 39.4 °F 31.8 °F 34.2 °F 82% 29.83 in 7.0 mi SSE 12.7 mph 18.4 mph 0.03 in Rain Heavy Rain
7:35 AM 39.7 °F 31.2 °F 33.8 °F 79% 29.83 in 10.0 mi SSE 16.1 mph 23.0 mph 0.04 in   Overcast
7:55 AM 39.9 °F 32.9 °F 33.8 °F 79% 29.82 in 10.0 mi South 11.5 mph 17.3 mph 0.04 in   Overcast
8:15 AM 40.3 °F 33.0 °F 33.4 °F 77% 29.82 in 10.0 mi South 12.7 mph 19.6 mph N/A   Overcast
8:35 AM 41.0 °F 32.5 °F 33.1 °F 73% 29.81 in 10.0 mi South 17.3 mph 24.2 mph N/A   Overcast
8:55 AM 41.2 °F 31.6 °F 33.4 °F 74% 29.80 in 10.0 mi South 21.9 mph 25.3 mph N/A   Light Drizzle
9:15 AM 41.0 °F 31.4 °F 34.7 °F 78% 29.80 in 7.0 mi South 21.9 mph 25.3 mph 0.01 in Rain Rain
9:35 AM 40.6 °F 31.4 °F 36.3 °F 85% 29.80 in 2.5 mi South 19.6 mph 26.5 mph 0.06 in Rain Light Rain
9:55 AM 41.0 °F 32.2 °F 36.7 °F 85% 29.80 in 2.5 mi South 18.4 mph 25.3 mph 0.11 in Rain Light Rain
10:15 AM 41.0 °F 31.9 °F 37.2 °F 86% 29.79 in 2.5 mi South 19.6 mph 24.2 mph 0.03 in   Unknown
10:35 AM 41.9 °F 33.7 °F 37.6 °F 85% 29.79 in 10.0 mi South 17.3 mph - 0.05 in Rain Light Rain
10:55 AM 42.8 °F 34.0 °F 37.9 °F 83% 29.78 in 10.0 mi South 20.7 mph 25.3 mph 0.05 in   Overcast
11:15 AM 42.8 °F 34.5 °F 38.1 °F 84% 29.76 in 10.0 mi South 18.4 mph 24.2 mph N/A Rain Light Rain
11:35 AM 43.7 °F 35.4 °F 39.0 °F 84% 29.75 in 10.0 mi South 19.6 mph 25.3 mph N/A   Light Drizzle
11:55 AM 44.8 °F 36.6 °F 39.2 °F 81% 29.74 in 10.0 mi South 20.7 mph 26.5 mph N/A Rain Light Rain
12:15 PM 45.7 °F 37.4 °F 39.4 °F 79% 29.73 in 10.0 mi South 23.0 mph 29.9 mph N/A Rain Light Rain
12:35 PM 45.7 °F 38.0 °F 39.6 °F 79% 29.73 in 10.0 mi South 19.6 mph - N/A Rain Light Rain
12:55 PM 46.0 °F 39.3 °F 40.1 °F 80% 29.72 in 7.0 mi South 16.1 mph - 0.01 in Rain Light Rain
1:15 PM 48.9 °F - 41.2 °F 75% 29.70 in 10.0 mi South 16.1 mph 24.2 mph N/A   Overcast
1:35 PM 50.7 °F - 42.4 °F 73% 29.69 in 10.0 mi South 17.3 mph 26.5 mph 0.01 in   Overcast
1:55 PM 52.7 °F - 42.8 °F 69% 29.67 in 10.0 mi South 25.3 mph 35.7 mph 0.01 in   Overcast
2:15 PM 52.9 °F - 42.8 °F 69% 29.66 in 10.0 mi South 19.6 mph 31.1 mph N/A   Overcast
2:35 PM 53.8 °F - 43.3 °F 68% 29.65 in 10.0 mi South 24.2 mph 35.7 mph N/A   Overcast
2:55 PM 54.0 °F - 43.5 °F 68% 29.63 in 10.0 mi South 25.3 mph 35.7 mph N/A   Overcast
3:15 PM 54.5 °F - 43.7 °F 67% 29.62 in 10.0 mi South 27.6 mph 35.7 mph N/A   Overcast
3:35 PM 54.7 °F - 43.3 °F 66% 29.61 in 10.0 mi South 25.3 mph 38.0 mph N/A   Overcast
3:55 PM 54.5 °F - 43.7 °F 67% 29.61 in 10.0 mi South 25.3 mph 36.8 mph N/A   Overcast
4:15 PM 54.3 °F - 44.1 °F 68% 29.60 in 10.0 mi South 24.2 mph 29.9 mph N/A   Overcast
4:35 PM 53.8 °F - 44.1 °F 70% 29.59 in 10.0 mi South 24.2 mph 33.4 mph N/A   Overcast
4:55 PM 53.8 °F - 44.6 °F 71% 29.58 in 10.0 mi South 26.5 mph 34.5 mph N/A   Overcast
5:15 PM 53.6 °F - 44.8 °F 72% 29.59 in 10.0 mi South 20.7 mph 31.1 mph N/A   Overcast
5:35 PM 53.2 °F - 45.5 °F 75% 29.59 in 10.0 mi South 23.0 mph 29.9 mph N/A Rain Light Rain
5:55 PM 53.2 °F - 46.0 °F 77% 29.58 in 10.0 mi South 21.9 mph 28.8 mph N/A   Light Drizzle
6:15 PM 53.4 °F - 46.6 °F 78% 29.58 in 10.0 mi South 24.2 mph 29.9 mph N/A   Overcast
6:35 PM 53.6 °F - 46.8 °F 78% 29.58 in 10.0 mi South 19.6 mph 27.6 mph N/A   Overcast
6:55 PM 53.6 °F - 46.6 °F 77% 29.58 in 10.0 mi South 20.7 mph 25.3 mph N/A   Overcast
7:15 PM 53.6 °F - 46.9 °F 78% 29.56 in 10.0 mi South 16.1 mph 23.0 mph N/A   Overcast
7:35 PM 52.9 °F - 48.2 °F 84% 29.56 in 5.0 mi South 16.1 mph 23.0 mph 0.06 in Rain Rain
7:55 PM 53.8 °F - 48.4 °F 82% 29.54 in 10.0 mi South 10.4 mph 26.5 mph 0.06 in   Overcast
8:15 PM 53.8 °F - 48.2 °F 81% 29.53 in 10.0 mi South 18.4 mph 24.2 mph N/A   Mostly Cloudy
8:35 PM 54.5 °F - 48.7 °F 81% 29.56 in 10.0 mi SSW 3.5 mph 23.0 mph N/A   Mostly Cloudy
8:55 PM 54.9 °F - 50.0 °F 84% 29.57 in 7.0 mi SSW 10.4 mph - 0.01 in Rain , Thunderstorm Rain
9:15 PM 55.4 °F - 51.8 °F 88% 29.55 in 5.0 mi South 13.8 mph 26.5 mph 0.11 in Rain Rain
9:35 PM 56.5 °F - 52.0 °F 85% 29.52 in 10.0 mi South 26.5 mph 34.5 mph 0.11 in   Mostly Cloudy
9:55 PM 56.8 °F - 52.0 °F 84% 29.50 in 10.0 mi South 20.7 mph 33.4 mph 0.11 in   Scattered Clouds
10:15 PM 57.2 °F - 51.4 °F 81% 29.53 in 10.0 mi South 18.4 mph 28.8 mph N/A   Clear
10:35 PM 56.7 °F - 52.2 °F 85% 29.53 in 10.0 mi South 16.1 mph 29.9 mph N/A   Scattered Clouds
10:55 PM 56.3 °F - 52.0 °F 85% 29.54 in 10.0 mi South 17.3 mph 25.3 mph N/A   Mostly Cloudy
11:15 PM 56.3 °F - 51.8 °F 85% 29.54 in 10.0 mi South 15.0 mph 23.0 mph N/A   Overcast
11:35 PM 56.5 °F - 52.0 °F 85% 29.55 in 10.0 mi SSW 10.4 mph 19.6 mph N/A   Overcast
11:55 PM 56.7 °F - 52.0 °F 84% 29.56 in 10.0 mi WSW 8.1 mph 19.6 mph N/A   Overcast